User: anonymous   Login
Location: Ústí nad Labem
(50.6611°N, 14.0531°E)
Time: 04:34:41
(UTC+02:00)
Language:

S-56A Canister/Altair - Orbit

View from above orbital plane
View from above orbital plane
View from above satellite
View from above satellite

Ground track
Ground track

The orbit data is extracted from the following two-line orbital elements,

1 00082U 61004B   24112.18379576  .00001572  00000-0  13673-2 0  9994
2 00082  38.8561  40.7175 1164244  18.8457 345.1866 12.26669673980112
Epoch (UTC): 21 April 2024 04:24:39
Eccentricity: 0.1164244
inclination: 38.8561°
perigee height: 639 km
apogee height: 2488 km
right ascension of ascending node: 40.7175°
argument of perigee: 18.8457°
revolutions per day: 12.26669673
mean anomaly at epoch: 345.1866°
orbit number at epoch: 98011

The dashed part of the orbit path shows where the satellite is in the earth's shadow,  

DLR